Retour au catalogue

STARLINK-31720

ActifCommunicationsVLEO
NORAD 59497·PAYLOAD·🇺🇸 United States

Lancé Apr 13, 2024 depuis Cape Canaveral Space Force Station

Loading…

Prochains Passages (prochaines 24 heures)

TLE

FraisSource: CelesTrak SupGP

Époque: Sep 15, 2026, 01:52 UTC

1 59497C 24071P   26258.07826389  .00025495  00000+0  92344-3 0  2581
2 59497  43.0018 350.6480 0001595 263.3760 134.9658 15.27565002    15

Suivez STARLINK-31720 en temps réel avec AllMySat

Download on the App Store